Location: Leverkusen
(51.0459°N, 7.0192°E)
Time: 07:23:59
(UTC+02:00)

ISS - Pass Details

Date: 27 January 2019
Orbit: 411 x 421 km, 51.6° (Epoch: 16 October)

Event Time Altitude Azimuth Distance (km) Brightness Sun altitude
Rises 19:53:13 0° 263° (W) 2,372 1.4 -24.9°
Reaches altitude 10° 19:55:19 10° 264° (W) 1,509 0.1 -25.2°
Enters shadow 19:57:16 32° 267° (W) 755 -1.9 -25.5°
